EW3845 Weather Reports


time (UTC)temp
C
wind
direction
speed
KPH
gust
KPH
rain 1hr
cm
rain 24hr
cm
rain mn
cm
humidity
%
barometer
mb
20260905144551 21 360 0.0 0.0 0.00 0.28 0.00 63 1022.1
20260905143059 20 360 0.0 0.0 0.00 0.28 0.00 64 1022.1
20260905141548 20 360 0.0 0.0 0.00 0.28 0.00 67 1022.0
20260905140048 20 289 0.0 0.0 0.00 0.28 0.00 66 1021.8
20260905134546 21 360 0.0 0.0 0.00 0.28 0.00 67 1021.8
20260905133046 21 360 0.0 0.0 0.00 0.28 0.00 68 1021.8
20260905131545 21 360 0.0 0.0 0.00 0.28 0.00 67 1021.8
20260905130048 21 291 0.0 0.0 0.00 0.28 0.00 67 1021.8
20260905124542 21 360 0.0 0.0 0.00 0.28 0.00 69 1021.7
20260905123042 21 360 0.0 0.0 0.00 0.28 0.00 67 1021.6
20260905121540 21 298 0.0 0.0 0.00 0.28 0.00 69 1021.5
20260905120048 20 304 0.0 0.0 0.00 0.28 0.00 69 1021.4
20260905114537 20 360 0.0 0.0 0.00 0.28 0.00 72 1021.2
20260905113035 20 360 0.0 0.0 0.00 0.28 0.00 72 1021.4
20260905111538 20 297 0.0 0.0 0.00 0.28 0.00 72 1021.2
20260905110033 20 284 0.0 0.0 0.00 0.28 0.00 71 1021.2
20260905104530 20 296 0.0 0.0 0.00 0.28 0.00 73 1021.1
20260905103029 20 360 0.0 0.0 0.00 0.28 0.00 73 1021.1
20260905101526 19 289 0.0 0.0 0.00 0.28 0.00 77 1020.9
20260905100024 19 306 0.0 0.0 0.00 0.28 0.00 78 1020.9
20260905094537 18 287 0.0 0.0 0.00 0.28 0.00 81 1020.7
20260905093020 18 360 0.0 0.0 0.00 0.28 0.00 80 1020.7
20260905091517 18 261 0.0 0.0 0.00 0.28 0.00 82 1020.6
20260905090016 18 302 0.0 0.0 0.00 0.28 0.00 84 1020.3
20260905084510 17 360 0.0 0.0 0.00 0.28 0.00 85 1020.3
20260905083007 17 293 0.0 0.0 0.00 0.28 0.00 87 1020.1
20260905081505 17 296 0.0 0.0 0.00 0.28 0.00 88 1020.0
20260905080005 16 360 0.0 0.0 0.00 0.28 0.00 89 1019.8
20260905074606 16 292 0.0 0.0 0.00 0.28 0.00 90 1019.8
20260905073110 16 286 0.0 0.0 0.00 0.28 0.00 91 1019.6
20260905071557 16 360 0.0 0.0 0.00 0.28 0.00 91 1019.4
20260905070056 15 360 0.0 0.0 0.00 0.28 0.00 92 1019.1
20260905064553 15 360 0.0 0.0 0.00 0.28 0.00 92 1019.0
20260905063051 15 292 0.0 0.0 0.00 0.28 0.00 93 1018.8
20260905061601 15 292 0.0 0.0 0.00 0.28 0.00 93 1018.6
20260905054555 15 289 0.0 0.0 0.00 0.28 0.00 93 1018.3
20260905053045 15 289 0.0 0.0 0.00 0.28 0.00 93 1018.3
20260905051602 15 289 0.0 0.0 0.00 0.28 0.00 93 1018.2
20260905050043 14 289 0.0 0.0 0.00 0.28 0.00 93 1017.9
20260905044543 14 289 0.0 0.0 0.00 0.28 0.00 93 1017.7
20260905043040 15 289 0.0 0.0 0.00 0.28 0.00 93 1017.6
20260905041540 15 289 0.0 0.0 0.00 0.28 0.00 93 1017.4
20260905040036 15 289 0.0 0.0 0.00 0.28 0.00 93 1017.2
20260905034536 15 289 0.0 0.0 0.00 0.28 0.00 93 1017.1
20260905033034 15 289 0.0 0.0 0.00 0.28 0.00 93 1016.9
20260905031540 15 289 0.0 0.0 0.00 0.28 0.00 94 1017.0
20260905030033 15 289 0.0 0.0 0.00 0.28 0.00 94 1017.0
20260905024554 15 289 0.0 0.0 0.00 0.28 0.00 94 1016.9
20260905023030 15 289 0.0 0.0 0.00 0.28 0.00 94 1016.8
20260905021531 15 289 0.0 0.0 0.00 0.28 0.00 94 1016.9
20260905020033 15 289 0.0 0.0 0.00 0.28 0.00 94 1016.8
20260905014527 15 289 0.0 0.0 0.00 0.28 0.00 94 1016.7
20260905013025 15 289 0.0 0.0 0.00 0.28 0.00 94 1016.6
20260905011523 15 289 0.0 0.0 0.00 0.28 0.00 94 1016.6
20260905010023 15 289 0.0 0.0 0.00 0.28 0.00 94 1016.6
20260905004522 15 289 0.0 0.0 0.00 0.28 0.00 94 1016.5
20260905003020 15 289 0.0 0.0 0.00 0.28 0.00 94 1016.4
20260905001520 16 289 0.0 0.0 0.00 0.28 0.00 94 1016.3
20260905000018 16 289 0.0 0.0 0.00 0.28 0.00 94 1016.3
20260904234523 16 289 0.0 0.0 0.00 0.28 0.00 94 1016.1
20260904233015 16 289 0.0 0.0 0.00 0.28 0.00 94 1016.0
20260904231513 16 289 0.0 0.0 0.00 0.28 0.00 94 1016.0
20260904230012 16 289 0.0 0.0 0.00 0.28 0.00 94 1016.0
20260904224510 16 289 0.0 0.0 0.00 0.28 0.00 94 1015.8
20260904223009 16 289 0.0 0.0 0.00 0.28 0.00 94 1015.6
20260904221508 17 289 0.0 0.0 0.00 0.28 0.00 94 1015.6
20260904220006 17 289 0.0 0.0 0.00 0.28 0.28 94 1015.6
20260904214505 17 289 0.0 0.0 0.00 0.28 0.28 94 1015.6
20260904213004 17 289 0.0 0.0 0.00 0.28 0.28 94 1015.3
20260904211504 17 289 0.0 0.0 0.00 0.28 0.28 94 1015.4
20260904210004 17 289 0.0 0.0 0.00 0.28 0.28 94 1015.2
20260904204503 17 289 0.0 0.0 0.00 0.28 0.28 94 1014.7
20260904203007 17 290 0.0 0.0 0.00 0.28 0.28 94 1014.9
20260904201502 17 290 0.0 0.0 0.00 0.28 0.28 94 1014.6
20260904200005 17 290 0.0 0.0 0.00 0.28 0.28 94 1014.3
20260904194500 17 290 0.0 0.0 0.00 0.28 0.28 94 1014.3
20260904193100 17 290 0.0 0.0 0.00 0.28 0.28 93 1014.5
20260904191600 17 290 0.0 0.0 0.00 0.28 0.28 93 1014.2
20260904190100 17 290 0.0 0.0 0.00 0.28 0.28 93 1014.2
20260904184600 17 290 0.0 0.0 0.00 0.28 0.28 93 1013.8
20260904183059 17 290 0.0 0.0 0.00 0.28 0.28 93 1013.6
20260904181558 17 360 0.0 0.0 0.00 0.28 0.28 93 1013.3
20260904180057 17 290 0.0 0.0 0.00 1.40 0.28 93 1013.5
20260904180009 17 290 0.0 0.0 0.00 0.28 0.28 93 1013.2
20260904175608 17 290 0.0 0.0 0.00 1.40 0.28 93 1013.5
20260904175053 17 360 0.0 0.0 0.00 1.40 0.28 93 1013.4
20260904174545 17 360 0.0 0.0 0.00 1.40 0.28 92 1013.4
20260904174053 17 360 0.0 0.0 0.00 1.40 0.28 92 1013.2
20260904173545 17 360 0.0 0.0 0.00 1.40 0.28 92 1013.2
20260904173053 17 360 0.0 0.0 0.00 1.40 0.28 92 1013.1
20260904173007 17 360 0.0 0.0 0.00 0.28 0.28 92 1012.9
20260904172545 17 360 0.0 0.0 0.00 1.40 0.28 92 1012.9
20260904172051 17 360 0.0 0.0 0.00 1.40 0.28 92 1012.9
20260904171643 17 360 0.0 0.0 0.03 0.28 0.28 92 1012.6
20260904171542 17 360 0.0 0.0 0.10 1.40 0.28 92 1013.0
20260904171049 17 360 0.0 0.0 0.10 1.40 0.28 92 1013.0
20260904170601 17 360 0.0 0.0 0.20 1.40 0.28 92 1013.0
20260904170149 17 360 0.0 0.0 0.05 0.28 0.28 92 1012.7
20260904170045 17 360 0.0 0.0 0.30 1.40 0.28 92 1013.0
20260904165557 17 360 0.0 0.0 0.51 1.40 0.28 92 1012.9
20260904165103 17 360 0.0 0.0 0.51 1.40 0.28 92 1013.0
20260904164615 17 360 0.0 0.0 0.51 1.40 0.28 92 1012.9
20260904164042 17 360 0.0 0.0 0.51 1.40 0.28 91 1012.7
20260904163554 17 360 0.0 0.0 0.61 1.40 0.28 91 1012.8
20260904163143 17 360 0.0 0.0 0.13 0.28 0.28 91 1012.6
20260904163042 17 360 0.0 0.0 0.61 1.40 0.28 91 1013.0
20260904162555 17 288 0.0 0.0 0.71 1.40 0.28 90 1013.0
20260904162043 17 360 0.0 0.0 0.99 1.40 0.28 90 1012.7
20260904161554 17 304 0.0 0.0 1.30 1.30 0.25 90 1012.7
20260904161504 17 304 0.0 0.0 0.25 0.25 0.25 90 1012.4
20260904161102 17 290 0.0 0.0 1.30 1.30 0.25 89 1012.9
20260904160613 18 360 0.0 0.0 1.19 1.19 0.23 89 1013.1
20260904160158 17 360 0.0 0.0 0.23 0.23 0.23 89 1012.6
20260904160058 18 342 0.0 0.0 1.09 1.09 0.23 89 1013.0
20260904155551 18 360 0.0 0.0 0.89 0.89 0.18 89 1012.7
20260904155039 18 360 0.0 0.0 0.89 0.89 0.18 88 1012.6
20260904154653 18 360 0.0 0.0 0.18 0.18 0.18 88 1012.3
20260904154551 18 360 0.0 0.0 0.89 0.89 0.18 88 1012.6
20260904154057 18 360 0.0 0.0 0.89 0.89 0.18 87 1012.6
20260904153548 19 250 0.0 0.0 0.79 0.79 0.15 86 1012.6
20260904153158 19 304 0.0 0.0 0.15 0.15 0.15 85 1012.3
20260904153054 20 255 0.0 0.0 0.79 0.79 0.15 85 1012.6
20260904152546 20 360 0.0 0.0 0.71 0.71 0.15 83 1012.6
20260904152113 21 53 0.0 0.0 0.30 0.30 0.05 83 1012.4
20260904151649 21 221 0.0 0.0 0.00 0.00 0.00 85 1012.0
20260904151545 22 302 0.0 0.0 0.00 0.00 0.00 85 1012.2
20260904151054 22 295 0.0 0.0 0.00 0.00 0.00 84 1012.0